Time,TemperatureF,DewpointF,PressureIn,WindDirection,WindDirectionDegrees,WindSpeedMPH,WindSpeedGustMPH,Humidity,HourlyPrecipIn,Conditions,Clouds,dailyrainin,SolarRadiationWatts/m^2,SoftwareType,DateUTC
2013-10-04 00:00:00,55.9,54.5,29.89,NNE,15,10.0,14.0,95,0.00,,---,0.02,0.00,VWS V14.01,2013-10-04 05:00:00,
2013-10-04 00:03:00,55.8,54.4,29.89,NNE,14,10.0,14.0,95,0.00,,---,0.02,0.00,VWS V14.01,2013-10-04 05:03:00,
2013-10-04 00:06:00,55.8,54.4,29.89,NE,36,12.0,12.0,95,0.00,,---,0.00,0.00,VWS V14.01,2013-10-04 05:06:00,
2013-10-04 00:11:00,55.8,54.7,29.89,NNE,33,9.0,15.0,96,0.00,,---,0.00,0.00,VWS V14.01,2013-10-04 05:11:00,
2013-10-04 00:14:00,55.8,54.4,29.89,NNE,27,12.0,15.0,95,0.00,,---,0.00,0.00,VWS V14.01,2013-10-04 05:14:00,
2013-10-04 00:16:00,55.8,54.4,29.89,NNE,30,3.0,15.0,95,0.00,,---,0.00,0.00,VWS V14.01,2013-10-04 05:16:00,
2013-10-04 00:19:00,55.8,54.4,29.89,NNE,30,3.0,15.0,95,0.00,,---,0.00,0.00,VWS V14.01,2013-10-04 05:19:00,
2013-10-04 00:24:00,55.7,54.3,29.88,NE,34,6.0,13.0,95,0.00,,---,0.00,0.00,VWS V14.01,2013-10-04 05:24:00,
2013-10-04 00:25:00,55.7,54.3,29.88,NE,42,10.0,13.0,95,0.00,,---,0.00,0.00,VWS V14.01,2013-10-04 05:25:00,
2013-10-04 00:31:00,55.7,54.3,29.88,NE,35,9.0,14.0,95,0.00,,---,0.00,0.00,VWS V14.01,2013-10-04 05:31:00,
2013-10-04 00:36:00,55.7,54.3,29.88,NE,37,3.0,10.0,95,0.00,,---,0.00,0.00,VWS V14.01,2013-10-04 05:36:00,
2013-10-04 00:41:00,55.6,54.2,29.88,NE,42,8.0,13.0,95,0.00,,---,0.00,0.00,VWS V14.01,2013-10-04 05:41:00,
2013-10-04 00:46:00,55.6,54.2,29.88,NE,34,7.0,14.0,95,0.00,,---,0.00,0.00,VWS V14.01,2013-10-04 05:46:00,
2013-10-04 00:51:00,55.5,54.1,29.87,NNE,23,9.0,11.0,95,0.00,,---,0.00,0.00,VWS V14.01,2013-10-04 05:51:00,
2013-10-04 00:56:00,55.5,54.1,29.88,NNE,19,7.0,13.0,95,0.00,,---,0.00,0.00,VWS V14.01,2013-10-04 05:56:00,
2013-10-04 01:01:00,55.5,54.4,29.89,NE,37,8.0,13.0,96,0.00,,---,0.00,0.00,VWS V14.01,2013-10-04 06:01:00,
2013-10-04 01:06:00,55.5,54.4,29.89,NE,36,10.0,11.0,96,0.00,,---,0.00,0.00,VWS V14.01,2013-10-04 06:06:00,
2013-10-04 01:11:00,55.5,54.4,29.89,NE,41,4.0,12.0,96,0.00,,---,0.00,0.00,VWS V14.01,2013-10-04 06:11:00,
2013-10-04 01:16:00,55.5,54.1,29.88,NNE,33,6.0,13.0,95,0.00,,---,0.00,0.00,VWS V14.01,2013-10-04 06:16:00,
2013-10-04 01:21:00,55.4,54.0,29.87,NNE,24,6.0,11.0,95,0.00,,---,0.00,0.00,VWS V14.01,2013-10-04 06:21:00,
2013-10-04 01:26:00,55.4,54.0,29.88,NE,35,10.0,13.0,95,0.00,,---,0.00,0.00,VWS V14.01,2013-10-04 06:26:00,
2013-10-04 01:31:00,55.3,53.9,29.89,NE,44,7.0,13.0,95,0.00,,---,0.00,0.00,VWS V14.01,2013-10-04 06:31:00,
2013-10-04 01:36:00,55.3,53.9,29.89,NE,37,8.0,12.0,95,0.00,,---,0.00,0.00,VWS V14.01,2013-10-04 06:36:00,
2013-10-04 01:41:00,55.2,53.8,29.89,NE,39,5.0,13.0,95,0.00,,---,0.00,0.00,VWS V14.01,2013-10-04 06:41:00,
2013-10-04 01:46:00,55.2,53.8,29.90,NE,42,3.0,16.0,95,0.00,,---,0.00,0.00,VWS V14.01,2013-10-04 06:46:00,
2013-10-04 01:51:00,55.2,53.8,29.91,NE,43,4.0,11.0,95,0.00,,---,0.00,0.00,VWS V14.01,2013-10-04 06:51:00,
2013-10-04 01:56:00,55.2,53.8,29.91,NE,55,3.0,11.0,95,0.00,,---,0.00,0.00,VWS V14.01,2013-10-04 06:56:00,
2013-10-04 02:01:00,55.1,53.7,29.91,NE,36,7.0,11.0,95,0.00,,---,0.00,0.00,VWS V14.01,2013-10-04 07:01:00,
2013-10-04 02:06:00,55.1,53.7,29.90,NNE,31,7.0,12.0,95,0.00,,---,0.00,0.00,VWS V14.01,2013-10-04 07:06:00,
2013-10-04 02:11:00,55.0,53.6,29.89,NE,44,9.0,13.0,95,0.00,,---,0.00,0.00,VWS V14.01,2013-10-04 07:11:00,
2013-10-04 02:16:00,54.9,53.5,29.89,NNE,17,9.0,14.0,95,0.00,,---,0.00,0.00,VWS V14.01,2013-10-04 07:16:00,
2013-10-04 02:21:00,54.7,53.3,29.90,NNE,26,5.0,14.0,95,0.00,,---,0.00,0.00,VWS V14.01,2013-10-04 07:21:00,
2013-10-04 02:26:00,54.6,53.2,29.89,North,10,11.0,16.0,95,0.00,,---,0.00,0.00,VWS V14.01,2013-10-04 07:26:00,
2013-10-04 02:31:00,54.5,53.1,29.90,NNE,18,6.0,16.0,95,0.00,,---,0.00,0.00,VWS V14.01,2013-10-04 07:31:00,
2013-10-04 02:36:00,54.5,53.1,29.90,NNE,24,6.0,11.0,95,0.00,,---,0.00,0.00,VWS V14.01,2013-10-04 07:36:00,
2013-10-04 02:41:00,54.4,53.0,29.90,NE,36,5.0,12.0,95,0.00,,---,0.00,0.00,VWS V14.01,2013-10-04 07:41:00,
2013-10-04 02:46:00,54.4,53.0,29.90,NNE,32,4.0,12.0,95,0.00,,---,0.00,0.00,VWS V14.01,2013-10-04 07:46:00,
2013-10-04 02:51:00,54.3,52.9,29.90,North,11,8.0,10.0,95,0.00,,---,0.00,0.00,VWS V14.01,2013-10-04 07:51:00,
2013-10-04 02:56:00,54.2,52.8,29.90,NNE,24,6.0,12.0,95,0.00,,---,0.00,0.00,VWS V14.01,2013-10-04 07:56:00,
2013-10-04 03:01:00,54.2,53.1,29.89,NNE,26,6.0,13.0,96,0.00,,---,0.00,0.00,VWS V14.01,2013-10-04 08:01:00,
2013-10-04 03:06:00,54.2,53.1,29.90,NE,48,5.0,7.0,96,0.00,,---,0.00,0.00,VWS V14.01,2013-10-04 08:06:00,
2013-10-04 03:11:00,54.2,53.1,29.90,NE,45,3.0,11.0,96,0.00,,---,0.00,0.00,VWS V14.01,2013-10-04 08:11:00,
2013-10-04 03:16:00,54.3,53.2,29.90,NE,46,2.0,11.0,96,0.00,,---,0.00,0.00,VWS V14.01,2013-10-04 08:16:00,
2013-10-04 03:21:00,54.2,53.1,29.90,NE,51,4.0,7.0,96,0.00,,---,0.00,0.00,VWS V14.01,2013-10-04 08:21:00,
2013-10-04 03:26:00,54.2,53.1,29.89,NE,45,5.0,10.0,96,0.00,,---,0.00,0.00,VWS V14.01,2013-10-04 08:26:00,
2013-10-04 03:31:00,54.2,53.1,29.89,NE,52,3.0,10.0,96,0.00,,---,0.00,0.00,VWS V14.01,2013-10-04 08:31:00,
2013-10-04 03:36:00,54.2,53.1,29.90,NE,46,5.0,9.0,96,0.00,,---,0.00,0.00,VWS V14.01,2013-10-04 08:36:00,
2013-10-04 03:41:00,54.2,53.1,29.90,NE,45,6.0,12.0,96,0.00,,---,0.00,0.00,VWS V14.01,2013-10-04 08:41:00,
2013-10-04 03:46:00,54.1,53.0,29.90,NE,44,6.0,12.0,96,0.00,,---,0.00,0.00,VWS V14.01,2013-10-04 08:46:00,
2013-10-04 03:51:00,54.2,53.1,29.89,NE,46,5.0,12.0,96,0.00,,---,0.00,0.00,VWS V14.01,2013-10-04 08:51:00,
2013-10-04 03:56:00,54.2,53.1,29.88,NNE,33,11.0,15.0,96,0.00,,---,0.00,0.00,VWS V14.01,2013-10-04 08:56:00,
2013-10-04 04:01:00,54.2,53.1,29.88,NE,36,11.0,15.0,96,0.00,,---,0.00,0.00,VWS V14.01,2013-10-04 09:01:00,
2013-10-04 04:06:00,54.1,52.7,29.88,NE,43,9.0,14.0,95,0.00,,---,0.00,0.00,VWS V14.01,2013-10-04 09:06:00,
2013-10-04 04:11:00,54.1,52.7,29.88,ENE,61,11.0,16.0,95,0.00,,---,0.00,0.00,VWS V14.01,2013-10-04 09:11:00,
2013-10-04 04:16:00,54.1,52.7,29.88,NE,51,11.0,16.0,95,0.00,,---,0.00,0.00,VWS V14.01,2013-10-04 09:16:00,
2013-10-04 04:21:00,54.1,52.7,29.88,ENE,57,10.0,15.0,95,0.00,,---,0.00,0.00,VWS V14.01,2013-10-04 09:21:00,
2013-10-04 04:26:00,54.0,52.6,29.89,NE,44,6.0,15.0,95,0.00,,---,0.00,0.00,VWS V14.01,2013-10-04 09:26:00,
2013-10-04 04:31:00,54.0,52.6,29.89,NE,46,3.0,15.0,95,0.00,,---,0.00,0.00,VWS V14.01,2013-10-04 09:31:00,
2013-10-04 04:36:00,54.0,52.6,29.89,ENE,58,6.0,9.0,95,0.00,,---,0.00,0.00,VWS V14.01,2013-10-04 09:36:00,
2013-10-04 04:41:00,53.9,52.5,29.89,NE,46,4.0,11.0,95,0.00,,---,0.00,0.00,VWS V14.01,2013-10-04 09:41:00,
2013-10-04 04:46:00,53.9,52.5,29.89,ENE,57,10.0,11.0,95,0.00,,---,0.00,0.00,VWS V14.01,2013-10-04 09:46:00,
2013-10-04 04:51:00,53.9,52.5,29.89,ENE,61,6.0,11.0,95,0.00,,---,0.00,0.00,VWS V14.01,2013-10-04 09:51:00,
2013-10-04 04:56:00,53.8,52.4,29.90,NE,48,7.0,11.0,95,0.00,,---,0.00,0.00,VWS V14.01,2013-10-04 09:56:00,
2013-10-04 05:01:00,53.8,52.4,29.90,NE,52,4.0,11.0,95,0.00,,---,0.00,0.00,VWS V14.01,2013-10-04 10:01:00,
2013-10-04 05:06:00,53.8,52.4,29.89,NE,51,7.0,10.0,95,0.00,,---,0.00,0.00,VWS V14.01,2013-10-04 10:06:00,
2013-10-04 05:11:00,53.8,52.4,29.89,NE,55,5.0,10.0,95,0.00,,---,0.00,0.00,VWS V14.01,2013-10-04 10:11:00,
2013-10-04 05:16:00,53.8,52.4,29.89,NE,45,8.0,11.0,95,0.00,,---,0.00,0.00,VWS V14.01,2013-10-04 10:16:00,
2013-10-04 05:21:00,53.8,52.4,29.89,NNE,23,11.0,11.0,95,0.00,,---,0.00,0.00,VWS V14.01,2013-10-04 10:21:00,
2013-10-04 05:26:00,53.8,52.4,29.89,NE,56,10.0,13.0,95,0.00,,---,0.00,0.00,VWS V14.01,2013-10-04 10:26:00,
2013-10-04 05:31:00,53.8,52.4,29.90,NE,42,6.0,15.0,95,0.00,,---,0.00,0.00,VWS V14.01,2013-10-04 10:31:00,
2013-10-04 05:36:00,53.8,52.4,29.89,NE,37,8.0,11.0,95,0.00,,---,0.00,0.00,VWS V14.01,2013-10-04 10:36:00,
2013-10-04 05:41:00,53.8,52.4,29.90,NE,41,9.0,12.0,95,0.00,,---,0.00,0.00,VWS V14.01,2013-10-04 10:41:00,
2013-10-04 05:46:00,53.8,52.4,29.89,NE,51,9.0,12.0,95,0.00,,---,0.00,0.00,VWS V14.01,2013-10-04 10:46:00,
2013-10-04 05:51:00,53.8,52.7,29.89,NE,35,11.0,13.0,96,0.00,,---,0.00,0.00,VWS V14.01,2013-10-04 10:51:00,
2013-10-04 05:56:00,53.8,52.7,29.89,NE,48,4.0,13.0,96,0.00,,---,0.00,0.00,VWS V14.01,2013-10-04 10:56:00,
2013-10-04 06:01:00,53.8,52.7,29.90,NE,50,5.0,13.0,96,0.00,,---,0.00,0.00,VWS V14.01,2013-10-04 11:01:00,
2013-10-04 06:06:00,53.8,52.7,29.91,ENE,74,6.0,9.0,96,0.00,,---,0.00,0.00,VWS V14.01,2013-10-04 11:06:00,
2013-10-04 06:11:00,53.9,52.8,29.93,SE,126,9.0,10.0,96,0.00,,---,0.00,0.00,VWS V14.01,2013-10-04 11:11:00,
2013-10-04 06:16:00,53.9,52.8,29.93,East,79,3.0,10.0,96,0.00,,---,0.00,0.00,VWS V14.01,2013-10-04 11:16:00,
2013-10-04 06:21:00,53.9,52.8,29.92,NE,55,5.0,7.0,96,0.00,,---,0.00,0.00,VWS V14.01,2013-10-04 11:21:00,
2013-10-04 06:26:00,54.0,52.9,29.92,ENE,64,5.0,7.0,96,0.00,,---,0.00,0.00,VWS V14.01,2013-10-04 11:26:00,
2013-10-04 06:31:00,54.0,52.9,29.92,ENE,58,8.0,8.0,96,0.00,,---,0.00,0.00,VWS V14.01,2013-10-04 11:31:00,
2013-10-04 06:36:00,54.1,53.0,29.91,NE,53,9.0,9.0,96,0.00,,---,0.00,0.00,VWS V14.01,2013-10-04 11:36:00,
2013-10-04 06:41:00,54.1,53.0,29.91,NE,49,5.0,9.0,96,0.00,,---,0.00,0.00,VWS V14.01,2013-10-04 11:41:00,
2013-10-04 06:46:00,54.1,53.0,29.91,ENE,71,6.0,10.0,96,0.00,,---,0.00,0.00,VWS V14.01,2013-10-04 11:46:00,
2013-10-04 06:51:00,54.2,53.1,29.91,NNE,32,7.0,11.0,96,0.00,,---,0.00,0.00,VWS V14.01,2013-10-04 11:51:00,
2013-10-04 06:56:00,54.2,53.1,29.90,NE,38,9.0,15.0,96,0.00,,---,0.00,0.00,VWS V14.01,2013-10-04 11:56:00,
2013-10-04 07:01:00,54.2,53.1,29.90,NNE,28,10.0,15.0,96,0.00,,---,0.00,0.00,VWS V14.01,2013-10-04 12:01:00,
2013-10-04 07:06:00,54.2,53.1,29.90,ENE,59,6.0,8.0,96,0.00,,---,0.00,0.00,VWS V14.01,2013-10-04 12:06:00,
2013-10-04 07:11:00,54.2,53.1,29.90,NE,48,6.0,12.0,96,0.00,,---,0.00,0.00,VWS V14.01,2013-10-04 12:11:00,
2013-10-04 07:16:00,54.2,53.1,29.90,NE,42,5.0,12.0,96,0.00,,---,0.00,0.00,VWS V14.01,2013-10-04 12:16:00,
2013-10-04 07:21:00,54.2,53.1,29.90,NE,45,4.0,12.0,96,0.00,,---,0.00,0.00,VWS V14.01,2013-10-04 12:21:00,
2013-10-04 07:26:00,54.3,53.2,29.89,NE,46,8.0,12.0,96,0.00,,---,0.00,0.00,VWS V14.01,2013-10-04 12:26:00,
2013-10-04 07:31:00,54.3,53.2,29.88,NE,39,10.0,12.0,96,0.00,,---,0.00,0.00,VWS V14.01,2013-10-04 12:31:00,
2013-10-04 07:36:00,54.3,53.2,29.88,NE,41,6.0,12.0,96,0.00,,---,0.00,0.00,VWS V14.01,2013-10-04 12:36:00,
2013-10-04 07:41:00,54.3,53.2,29.88,ENE,57,9.0,13.0,96,0.00,,---,0.00,0.00,VWS V14.01,2013-10-04 12:41:00,
2013-10-04 07:46:00,54.3,53.2,29.88,NE,51,9.0,13.0,96,0.00,,---,0.00,0.00,VWS V14.01,2013-10-04 12:46:00,
2013-10-04 07:51:00,54.4,53.3,29.88,NE,36,10.0,13.0,96,0.00,,---,0.00,7.00,VWS V14.01,2013-10-04 12:51:00,
2013-10-04 07:56:00,54.5,53.4,29.87,NE,51,9.0,13.0,96,0.00,,---,0.00,7.00,VWS V14.01,2013-10-04 12:56:00,
2013-10-04 08:01:00,54.5,53.4,29.88,NE,38,11.0,14.0,96,0.00,,---,0.00,7.00,VWS V14.01,2013-10-04 13:01:00,
2013-10-04 08:06:00,54.5,53.4,29.88,NE,44,5.0,9.0,96,0.00,,---,0.00,11.00,VWS V14.01,2013-10-04 13:06:00,
2013-10-04 08:11:00,54.6,53.5,29.88,NE,47,7.0,14.0,96,0.00,,---,0.00,14.00,VWS V14.01,2013-10-04 13:11:00,
2013-10-04 08:16:00,54.6,53.5,29.88,ENE,64,10.0,14.0,96,0.00,,---,0.00,16.00,VWS V14.01,2013-10-04 13:16:00,
2013-10-04 08:21:00,54.7,53.6,29.88,NE,51,7.0,10.0,96,0.00,,---,0.00,18.00,VWS V14.01,2013-10-04 13:21:00,
2013-10-04 08:26:00,54.8,53.7,29.88,NE,49,6.0,12.0,96,0.00,,---,0.00,21.00,VWS V14.01,2013-10-04 13:26:00,
2013-10-04 08:31:00,54.8,53.7,29.88,ENE,64,8.0,12.0,96,0.00,,---,0.00,26.00,VWS V14.01,2013-10-04 13:31:00,
2013-10-04 08:36:00,54.9,54.1,29.88,NE,55,3.0,9.0,97,0.00,,---,0.00,26.00,VWS V14.01,2013-10-04 13:36:00,
2013-10-04 08:41:00,54.9,54.1,29.89,NE,46,6.0,13.0,97,0.00,,---,0.00,30.00,VWS V14.01,2013-10-04 13:41:00,
2013-10-04 08:46:00,55.0,54.2,29.89,NE,51,6.0,13.0,97,0.00,,---,0.00,35.00,VWS V14.01,2013-10-04 13:46:00,
2013-10-04 08:51:00,55.1,54.3,29.89,NE,49,4.0,10.0,97,0.00,,---,0.00,33.00,VWS V14.01,2013-10-04 13:51:00,
2013-10-04 08:56:00,55.1,54.3,29.88,ENE,63,6.0,13.0,97,0.00,,---,0.00,39.00,VWS V14.01,2013-10-04 13:56:00,
2013-10-04 09:01:00,55.2,54.1,29.88,NE,54,8.0,14.0,96,0.00,,---,0.00,42.00,VWS V14.01,2013-10-04 14:01:00,
2013-10-04 09:06:00,55.3,54.2,29.88,NE,43,7.0,11.0,96,0.00,,---,0.00,39.00,VWS V14.01,2013-10-04 14:06:00,
2013-10-04 09:11:00,55.3,54.2,29.88,NE,48,10.0,12.0,96,0.00,,---,0.00,39.00,VWS V14.01,2013-10-04 14:11:00,
2013-10-04 09:16:00,55.3,54.2,29.88,NE,49,10.0,15.0,96,0.00,,---,0.00,33.00,VWS V14.01,2013-10-04 14:16:00,
2013-10-04 09:21:00,55.4,54.3,29.88,NE,47,10.0,10.0,96,0.00,,---,0.00,47.00,VWS V14.01,2013-10-04 14:21:00,
2013-10-04 09:26:00,55.4,54.3,29.88,NE,49,8.0,14.0,96,0.00,,---,0.00,47.00,VWS V14.01,2013-10-04 14:26:00,
2013-10-04 09:31:00,55.5,54.4,29.88,NE,56,11.0,14.0,96,0.00,,---,0.00,47.00,VWS V14.01,2013-10-04 14:31:00,
2013-10-04 09:36:00,55.5,54.4,29.88,ENE,57,10.0,17.0,96,0.00,,---,0.00,39.00,VWS V14.01,2013-10-04 14:36:00,
2013-10-04 09:41:00,55.5,54.7,29.88,NE,53,4.0,17.0,97,0.00,,---,0.00,39.00,VWS V14.01,2013-10-04 14:41:00,
2013-10-04 09:46:00,55.6,54.5,29.88,NNE,22,11.0,17.0,96,0.00,,---,0.00,44.00,VWS V14.01,2013-10-04 14:46:00,
2013-10-04 09:51:00,55.7,54.6,29.88,NE,36,14.0,14.0,96,0.00,,---,0.00,46.00,VWS V14.01,2013-10-04 14:51:00,
2013-10-04 09:56:00,55.7,54.6,29.88,NE,43,7.0,18.0,96,0.00,,---,0.00,49.00,VWS V14.01,2013-10-04 14:56:00,
2013-10-04 10:01:00,55.7,54.6,29.88,ENE,63,12.0,18.0,96,0.00,,---,0.00,54.00,VWS V14.01,2013-10-04 15:01:00,
2013-10-04 10:06:00,55.7,54.6,29.88,NE,40,10.0,18.0,96,0.00,,---,0.00,49.00,VWS V14.01,2013-10-04 15:06:00,
2013-10-04 10:11:00,55.8,54.7,29.89,NE,44,11.0,18.0,96,0.00,,---,0.00,40.00,VWS V14.01,2013-10-04 15:11:00,
2013-10-04 10:16:00,55.8,54.7,29.89,NE,53,9.0,18.0,96,0.00,,---,0.00,44.00,VWS V14.01,2013-10-04 15:16:00,
2013-10-04 10:17:00,55.8,54.7,29.89,NE,41,7.0,18.0,96,0.00,,---,0.00,46.00,VWS V14.01,2013-10-04 15:17:00,
2013-10-04 10:22:00,55.8,54.7,29.89,NE,56,9.0,15.0,96,0.00,,---,0.00,44.00,VWS V14.01,2013-10-04 15:22:00,
2013-10-04 10:27:00,55.9,54.8,29.90,ENE,57,7.0,15.0,96,0.00,,---,0.00,46.00,VWS V14.01,2013-10-04 15:27:00,
2013-10-04 10:32:00,56.0,54.9,29.89,ENE,65,3.0,15.0,96,0.00,,---,0.00,40.00,VWS V14.01,2013-10-04 15:32:00,
2013-10-04 10:37:00,56.0,54.9,29.90,ENE,76,7.0,13.0,96,0.00,,---,0.00,40.00,VWS V14.01,2013-10-04 15:37:00,
2013-10-04 10:42:00,56.1,55.0,29.90,ENE,67,5.0,13.0,96,0.00,,---,0.00,40.00,VWS V14.01,2013-10-04 15:42:00,
2013-10-04 10:47:00,56.1,55.0,29.90,ENE,64,6.0,13.0,96,0.00,,---,0.00,44.00,VWS V14.01,2013-10-04 15:47:00,
2013-10-04 10:52:00,56.1,55.0,29.91,ENE,61,7.0,11.0,96,0.00,,---,0.00,40.00,VWS V14.01,2013-10-04 15:52:00,
2013-10-04 10:57:00,56.2,55.1,29.90,ENE,77,8.0,13.0,96,0.00,,---,0.00,37.00,VWS V14.01,2013-10-04 15:57:00,
2013-10-04 11:02:00,56.3,55.2,29.90,ENE,74,12.0,13.0,96,0.00,,---,0.00,46.00,VWS V14.01,2013-10-04 16:02:00,
2013-10-04 11:07:00,56.3,55.2,29.90,ENE,74,10.0,12.0,96,0.00,,---,0.00,53.00,VWS V14.01,2013-10-04 16:07:00,
2013-10-04 11:12:00,56.4,55.3,29.90,ENE,70,6.0,13.0,96,0.00,,---,0.00,47.00,VWS V14.01,2013-10-04 16:12:00,
2013-10-04 11:17:00,56.4,55.3,29.90,NE,52,10.0,13.0,96,0.00,,---,0.00,47.00,VWS V14.01,2013-10-04 16:17:00,
2013-10-04 11:22:00,56.5,55.4,29.90,NE,55,9.0,11.0,96,0.00,,---,0.00,58.00,VWS V14.01,2013-10-04 16:22:00,
2013-10-04 11:27:00,56.5,55.4,29.90,NE,39,12.0,12.0,96,0.00,,---,0.00,47.00,VWS V14.01,2013-10-04 16:27:00,
2013-10-04 11:32:00,56.5,55.4,29.90,ENE,75,7.0,12.0,96,0.00,,---,0.00,51.00,VWS V14.01,2013-10-04 16:32:00,
2013-10-04 11:37:00,56.6,55.5,29.90,ENE,65,6.0,9.0,96,0.00,,---,0.00,76.00,VWS V14.01,2013-10-04 16:37:00,
2013-10-04 11:42:00,56.6,55.5,29.91,East,81,7.0,12.0,96,0.00,,---,0.00,63.00,VWS V14.01,2013-10-04 16:42:00,
2013-10-04 11:47:00,56.6,55.5,29.90,ENE,78,7.0,12.0,96,0.00,,---,0.00,53.00,VWS V14.01,2013-10-04 16:47:00,
2013-10-04 11:52:00,56.6,55.5,29.90,East,83,7.0,12.0,96,0.00,,---,0.00,54.00,VWS V14.01,2013-10-04 16:52:00,
2013-10-04 11:57:00,56.6,55.5,29.90,NE,52,7.0,12.0,96,0.00,,---,0.00,40.00,VWS V14.01,2013-10-04 16:57:00,
2013-10-04 12:02:00,56.6,55.5,29.90,ENE,63,10.0,12.0,96,0.00,,---,0.00,109.00,VWS V14.01,2013-10-04 17:02:00,
2013-10-04 12:07:00,56.6,55.5,29.90,ENE,58,6.0,12.0,96,0.00,,---,0.00,74.00,VWS V14.01,2013-10-04 17:07:00,
2013-10-04 12:12:00,56.6,55.5,29.89,NE,51,8.0,12.0,96,0.00,,---,0.00,91.00,VWS V14.01,2013-10-04 17:12:00,
2013-10-04 12:17:00,56.6,55.5,29.89,ENE,70,7.0,14.0,96,0.00,,---,0.00,98.00,VWS V14.01,2013-10-04 17:17:00,
2013-10-04 12:22:00,56.5,55.4,29.90,ENE,72,7.0,14.0,96,0.00,,---,0.00,81.00,VWS V14.01,2013-10-04 17:22:00,
2013-10-04 12:27:00,56.6,55.5,29.89,ENE,74,9.0,14.0,96,0.00,,---,0.00,97.00,VWS V14.01,2013-10-04 17:27:00,
2013-10-04 12:32:00,56.6,55.5,29.90,East,80,10.0,14.0,96,0.00,,---,0.00,86.00,VWS V14.01,2013-10-04 17:32:00,
2013-10-04 12:37:00,56.7,55.6,29.90,NE,48,6.0,11.0,96,0.00,,---,0.00,90.00,VWS V14.01,2013-10-04 17:37:00,
2013-10-04 13:02:00,56.5,55.4,29.89,ENE,76,10.0,17.0,96,0.01,,---,0.01,84.00,VWS V14.01,2013-10-04 18:02:00,
2013-10-04 13:07:00,56.5,55.4,29.89,East,80,8.0,11.0,96,0.01,,---,0.01,88.00,VWS V14.01,2013-10-04 18:07:00,
2013-10-04 13:12:00,56.5,55.4,29.88,ENE,71,5.0,13.0,96,0.01,,---,0.01,62.00,VWS V14.01,2013-10-04 18:12:00,
2013-10-04 13:17:00,56.6,55.5,29.87,ENE,60,9.0,13.0,96,0.01,,---,0.01,93.00,VWS V14.01,2013-10-04 18:17:00,
2013-10-04 13:22:00,56.6,55.5,29.87,NE,53,8.0,13.0,96,0.01,,---,0.01,107.00,VWS V14.01,2013-10-04 18:22:00,
2013-10-04 13:27:00,56.8,55.7,29.86,ENE,72,9.0,14.0,96,0.01,,---,0.01,132.00,VWS V14.01,2013-10-04 18:27:00,
2013-10-04 13:32:00,56.8,55.7,29.85,NE,46,10.0,16.0,96,0.01,,---,0.01,146.00,VWS V14.01,2013-10-04 18:32:00,
2013-10-04 13:37:00,56.9,55.8,29.83,ENE,57,12.0,20.0,96,0.01,,---,0.01,200.00,VWS V14.01,2013-10-04 18:37:00,
2013-10-04 13:42:00,57.0,55.9,29.85,East,82,12.0,22.0,96,0.01,,---,0.01,111.00,VWS V14.01,2013-10-04 18:42:00,
2013-10-04 13:47:00,57.0,55.9,29.84,ENE,74,9.0,22.0,96,0.01,,---,0.01,118.00,VWS V14.01,2013-10-04 18:47:00,
2013-10-04 13:52:00,57.1,56.0,29.85,East,96,8.0,14.0,96,0.00,,---,0.01,84.00,VWS V14.01,2013-10-04 18:52:00,
2013-10-04 13:57:00,57.0,55.9,29.86,ENE,64,9.0,14.0,96,0.00,,---,0.01,84.00,VWS V14.01,2013-10-04 18:57:00,
2013-10-04 14:02:00,57.0,55.9,29.85,NE,51,9.0,14.0,96,0.00,,---,0.01,95.00,VWS V14.01,2013-10-04 19:02:00,
2013-10-04 14:07:00,57.1,56.0,29.85,ENE,71,5.0,14.0,96,0.00,,---,0.01,91.00,VWS V14.01,2013-10-04 19:07:00,
2013-10-04 14:12:00,57.1,56.0,29.85,NE,54,9.0,15.0,96,0.00,,---,0.01,97.00,VWS V14.01,2013-10-04 19:12:00,
2013-10-04 14:17:00,57.0,55.9,29.85,ENE,64,10.0,15.0,96,0.00,,---,0.01,90.00,VWS V14.01,2013-10-04 19:17:00,
2013-10-04 14:22:00,57.0,55.9,29.84,NE,55,12.0,12.0,96,0.00,,---,0.01,84.00,VWS V14.01,2013-10-04 19:22:00,
2013-10-04 14:27:00,57.1,56.0,29.84,ENE,60,12.0,12.0,96,0.00,,---,0.01,114.00,VWS V14.01,2013-10-04 19:27:00,
2013-10-04 14:32:00,57.1,56.0,29.83,ENE,69,10.0,15.0,96,0.00,,---,0.01,86.00,VWS V14.01,2013-10-04 19:32:00,
2013-10-04 14:37:00,57.1,56.0,29.83,East,84,5.0,9.0,96,0.00,,---,0.01,79.00,VWS V14.01,2013-10-04 19:37:00,
2013-10-04 14:42:00,57.0,55.9,29.83,NE,45,7.0,12.0,96,0.00,,---,0.01,83.00,VWS V14.01,2013-10-04 19:42:00,
2013-10-04 14:47:00,57.0,55.9,29.83,ENE,76,6.0,12.0,96,0.00,,---,0.01,76.00,VWS V14.01,2013-10-04 19:47:00,
2013-10-04 14:52:00,57.0,55.9,29.82,ENE,74,9.0,13.0,96,0.00,,---,0.01,83.00,VWS V14.01,2013-10-04 19:52:00,
2013-10-04 14:57:00,57.0,55.9,29.83,ENE,65,9.0,13.0,96,0.00,,---,0.01,81.00,VWS V14.01,2013-10-04 19:57:00,
2013-10-04 15:02:00,57.0,55.9,29.83,ENE,67,10.0,15.0,96,0.00,,---,0.01,88.00,VWS V14.01,2013-10-04 20:02:00,
2013-10-04 15:07:00,56.9,55.8,29.83,ENE,76,9.0,14.0,96,0.00,,---,0.01,69.00,VWS V14.01,2013-10-04 20:07:00,
2013-10-04 15:12:00,57.0,55.9,29.83,East,80,9.0,14.0,96,0.00,,---,0.01,44.00,VWS V14.01,2013-10-04 20:12:00,
2013-10-04 15:17:00,57.0,55.9,29.84,East,82,8.0,14.0,96,0.00,,---,0.01,32.00,VWS V14.01,2013-10-04 20:17:00,
2013-10-04 15:22:00,57.1,56.0,29.84,East,79,11.0,12.0,96,0.00,,---,0.01,40.00,VWS V14.01,2013-10-04 20:22:00,
2013-10-04 15:27:00,57.1,56.0,29.85,ENE,70,7.0,13.0,96,0.00,,---,0.01,40.00,VWS V14.01,2013-10-04 20:27:00,
2013-10-04 15:32:00,57.1,56.0,29.85,East,82,6.0,13.0,96,0.00,,---,0.01,33.00,VWS V14.01,2013-10-04 20:32:00,
2013-10-04 15:37:00,57.1,56.0,29.85,East,79,7.0,10.0,96,0.00,,---,0.01,42.00,VWS V14.01,2013-10-04 20:37:00,
2013-10-04 15:42:00,57.2,56.1,29.85,ENE,70,4.0,12.0,96,0.00,,---,0.01,37.00,VWS V14.01,2013-10-04 20:42:00,
2013-10-04 15:47:00,57.3,56.2,29.85,East,86,5.0,13.0,96,0.00,,---,0.01,56.00,VWS V14.01,2013-10-04 20:47:00,
2013-10-04 15:52:00,57.4,56.3,29.85,East,82,4.0,10.0,96,0.00,,---,0.01,33.00,VWS V14.01,2013-10-04 20:52:00,
2013-10-04 15:57:00,57.4,56.3,29.85,ENE,78,6.0,13.0,96,0.00,,---,0.01,53.00,VWS V14.01,2013-10-04 20:57:00,
2013-10-04 16:02:00,57.5,56.4,29.84,ENE,63,7.0,13.0,96,0.00,,---,0.01,63.00,VWS V14.01,2013-10-04 21:02:00,
2013-10-04 16:07:00,57.6,56.2,29.84,ENE,71,8.0,15.0,95,0.00,,---,0.01,37.00,VWS V14.01,2013-10-04 21:07:00,
2013-10-04 16:12:00,57.6,56.2,29.83,ENE,74,11.0,15.0,95,0.00,,---,0.01,49.00,VWS V14.01,2013-10-04 21:12:00,
2013-10-04 16:17:00,57.6,56.2,29.83,NE,52,6.0,15.0,95,0.00,,---,0.01,51.00,VWS V14.01,2013-10-04 21:17:00,
2013-10-04 16:22:00,57.6,56.2,29.83,ENE,69,6.0,11.0,95,0.00,,---,0.01,44.00,VWS V14.01,2013-10-04 21:22:00,
2013-10-04 16:27:00,57.6,56.2,29.83,ENE,63,4.0,13.0,95,0.00,,---,0.01,46.00,VWS V14.01,2013-10-04 21:27:00,
2013-10-04 16:32:00,57.7,56.3,29.83,ENE,71,5.0,13.0,95,0.00,,---,0.01,39.00,VWS V14.01,2013-10-04 21:32:00,
2013-10-04 16:37:00,57.7,56.6,29.82,ENE,58,6.0,10.0,96,0.00,,---,0.01,33.00,VWS V14.01,2013-10-04 21:37:00,
2013-10-04 16:42:00,57.8,56.7,29.82,ENE,71,6.0,11.0,96,0.00,,---,0.01,26.00,VWS V14.01,2013-10-04 21:42:00,
2013-10-04 16:47:00,57.7,56.3,29.83,ENE,78,6.0,11.0,95,0.00,,---,0.01,62.00,VWS V14.01,2013-10-04 21:47:00,
2013-10-04 16:52:00,57.7,56.6,29.82,ENE,74,6.0,11.0,96,0.00,,---,0.01,47.00,VWS V14.01,2013-10-04 21:52:00,
2013-10-04 16:57:00,57.7,56.6,29.82,ENE,69,7.0,12.0,96,0.00,,---,0.01,30.00,VWS V14.01,2013-10-04 21:57:00,
2013-10-04 17:02:00,57.7,56.3,29.82,NE,41,11.0,14.0,95,0.00,,---,0.01,26.00,VWS V14.01,2013-10-04 22:02:00,
2013-10-04 17:07:00,57.7,56.3,29.82,ENE,68,13.0,15.0,95,0.00,,---,0.01,33.00,VWS V14.01,2013-10-04 22:07:00,
2013-10-04 17:12:00,57.7,56.3,29.82,NE,56,9.0,15.0,95,0.00,,---,0.01,25.00,VWS V14.01,2013-10-04 22:12:00,
2013-10-04 17:17:00,57.6,56.2,29.82,ENE,60,12.0,15.0,95,0.00,,---,0.01,28.00,VWS V14.01,2013-10-04 22:17:00,
2013-10-04 17:22:00,57.6,56.2,29.82,ENE,70,10.0,13.0,95,0.00,,---,0.01,19.00,VWS V14.01,2013-10-04 22:22:00,
2013-10-04 17:27:00,57.6,56.2,29.81,ENE,68,10.0,17.0,95,0.00,,---,0.01,19.00,VWS V14.01,2013-10-04 22:27:00,
2013-10-04 17:32:00,57.5,56.1,29.81,East,79,10.0,17.0,95,0.00,,---,0.01,23.00,VWS V14.01,2013-10-04 22:32:00,
2013-10-04 17:37:00,57.5,56.1,29.81,East,80,11.0,17.0,95,0.00,,---,0.01,16.00,VWS V14.01,2013-10-04 22:37:00,
2013-10-04 17:42:00,57.5,56.1,29.81,ENE,65,8.0,17.0,95,0.00,,---,0.01,11.00,VWS V14.01,2013-10-04 22:42:00,
2013-10-04 17:47:00,57.4,56.0,29.80,ENE,60,11.0,17.0,95,0.00,,---,0.01,9.00,VWS V14.01,2013-10-04 22:47:00,
2013-10-04 17:52:00,57.4,56.0,29.80,ENE,74,7.0,15.0,95,0.00,,---,0.01,9.00,VWS V14.01,2013-10-04 22:52:00,
2013-10-04 17:57:00,57.4,56.0,29.80,NE,40,10.0,15.0,95,0.00,,---,0.01,12.00,VWS V14.01,2013-10-04 22:57:00,
2013-10-04 18:02:00,57.4,56.0,29.79,NE,55,11.0,15.0,95,0.00,,---,0.01,19.00,VWS V14.01,2013-10-04 23:02:00,
2013-10-04 18:07:00,57.4,56.0,29.79,ENE,61,9.0,15.0,95,0.00,,---,0.01,11.00,VWS V14.01,2013-10-04 23:07:00,
2013-10-04 18:12:00,57.4,56.0,29.79,ENE,66,12.0,16.0,95,0.00,,---,0.01,5.00,VWS V14.01,2013-10-04 23:12:00,
2013-10-04 18:17:00,57.4,56.0,29.79,ENE,66,9.0,20.0,95,0.00,,---,0.01,0.00,VWS V14.01,2013-10-04 23:17:00,
2013-10-04 18:22:00,57.4,56.0,29.79,ENE,77,9.0,16.0,95,0.00,,---,0.01,0.00,VWS V14.01,2013-10-04 23:22:00,
2013-10-04 18:27:00,57.4,56.0,29.79,ENE,75,14.0,17.0,95,0.00,,---,0.01,0.00,VWS V14.01,2013-10-04 23:27:00,
2013-10-04 18:32:00,57.4,56.0,29.79,ENE,76,10.0,20.0,95,0.00,,---,0.01,0.00,VWS V14.01,2013-10-04 23:32:00,
2013-10-04 18:37:00,57.4,56.0,29.79,East,80,10.0,13.0,95,0.00,,---,0.01,0.00,VWS V14.01,2013-10-04 23:37:00,
2013-10-04 18:42:00,57.5,56.1,29.79,ENE,65,10.0,16.0,95,0.00,,---,0.01,0.00,VWS V14.01,2013-10-04 23:42:00,
2013-10-04 18:47:00,57.5,56.1,29.79,East,80,9.0,16.0,95,0.00,,---,0.01,0.00,VWS V14.01,2013-10-04 23:47:00,
2013-10-04 18:52:00,57.5,56.1,29.78,ENE,58,10.0,18.0,95,0.00,,---,0.01,0.00,VWS V14.01,2013-10-04 23:52:00,
2013-10-04 18:57:00,57.4,56.0,29.78,NE,42,16.0,18.0,95,0.00,,---,0.01,0.00,VWS V14.01,2013-10-04 23:57:00,
2013-10-04 19:02:00,57.4,56.0,29.79,ENE,75,9.0,18.0,95,0.00,,---,0.01,0.00,VWS V14.01,2013-10-05 00:02:00,
2013-10-04 19:07:00,57.3,55.9,29.78,East,80,10.0,16.0,95,0.00,,---,0.01,0.00,VWS V14.01,2013-10-05 00:07:00,
2013-10-04 19:12:00,57.3,55.9,29.78,NE,49,12.0,16.0,95,0.00,,---,0.01,0.00,VWS V14.01,2013-10-05 00:12:00,
2013-10-04 19:17:00,57.3,55.9,29.78,ENE,72,9.0,17.0,95,0.00,,---,0.01,0.00,VWS V14.01,2013-10-05 00:17:00,
2013-10-04 19:22:00,57.2,55.8,29.78,ENE,76,14.0,16.0,95,0.00,,---,0.01,0.00,VWS V14.01,2013-10-05 00:22:00,
2013-10-04 19:27:00,57.2,56.1,29.78,East,83,15.0,19.0,96,0.00,,---,0.01,0.00,VWS V14.01,2013-10-05 00:27:00,
2013-10-04 19:32:00,57.2,56.1,29.77,ENE,78,9.0,19.0,96,0.00,,---,0.01,0.00,VWS V14.01,2013-10-05 00:32:00,
2013-10-04 19:37:00,57.1,56.0,29.77,East,89,9.0,21.0,96,0.00,,---,0.01,0.00,VWS V14.01,2013-10-05 00:37:00,
2013-10-04 19:42:00,57.1,56.0,29.77,ENE,69,14.0,24.0,96,0.00,,---,0.01,0.00,VWS V14.01,2013-10-05 00:42:00,
2013-10-04 19:47:00,57.1,56.0,29.78,ENE,70,10.0,24.0,96,0.00,,---,0.01,0.00,VWS V14.01,2013-10-05 00:47:00,
2013-10-04 19:52:00,57.1,56.0,29.78,East,96,10.0,18.0,96,0.00,,---,0.01,0.00,VWS V14.01,2013-10-05 00:52:00,
2013-10-04 19:57:00,57.2,56.1,29.78,East,92,15.0,18.0,96,0.00,,---,0.01,0.00,VWS V14.01,2013-10-05 00:57:00,
2013-10-04 20:02:00,57.2,56.1,29.78,ENE,75,16.0,18.0,96,0.00,,---,0.01,0.00,VWS V14.01,2013-10-05 01:02:00,
2013-10-04 20:07:00,57.2,56.1,29.77,ENE,66,12.0,18.0,96,0.00,,---,0.01,0.00,VWS V14.01,2013-10-05 01:07:00,
2013-10-04 20:12:00,57.2,56.1,29.77,ENE,78,11.0,21.0,96,0.00,,---,0.01,0.00,VWS V14.01,2013-10-05 01:12:00,
2013-10-04 20:17:00,57.2,56.1,29.77,East,94,11.0,21.0,96,0.00,,---,0.01,0.00,VWS V14.01,2013-10-05 01:17:00,
2013-10-04 20:22:00,57.2,56.1,29.77,East,88,13.0,16.0,96,0.00,,---,0.01,0.00,VWS V14.01,2013-10-05 01:22:00,
2013-10-04 20:27:00,57.3,56.2,29.76,East,87,10.0,16.0,96,0.00,,---,0.01,0.00,VWS V14.01,2013-10-05 01:27:00,
2013-10-04 20:32:00,57.3,56.2,29.75,East,79,10.0,20.0,96,0.00,,---,0.01,0.00,VWS V14.01,2013-10-05 01:32:00,
2013-10-04 20:37:00,57.3,56.2,29.76,East,84,12.0,17.0,96,0.00,,---,0.01,0.00,VWS V14.01,2013-10-05 01:37:00,
2013-10-04 20:42:00,57.4,56.3,29.76,East,82,15.0,17.0,96,0.00,,---,0.01,0.00,VWS V14.01,2013-10-05 01:42:00,
2013-10-04 20:47:00,57.4,56.3,29.76,East,90,15.0,18.0,96,0.00,,---,0.01,0.00,VWS V14.01,2013-10-05 01:47:00,
2013-10-04 20:52:00,57.5,56.4,29.76,ENE,58,11.0,15.0,96,0.00,,---,0.01,0.00,VWS V14.01,2013-10-05 01:52:00,
2013-10-04 20:57:00,57.5,56.4,29.75,NE,45,11.0,16.0,96,0.00,,---,0.01,0.00,VWS V14.01,2013-10-05 01:57:00,
2013-10-04 21:02:00,57.5,56.4,29.74,ENE,62,6.0,16.0,96,0.00,,---,0.01,0.00,VWS V14.01,2013-10-05 02:02:00,
2013-10-04 21:07:00,57.4,56.3,29.74,East,91,11.0,16.0,96,0.00,,---,0.01,0.00,VWS V14.01,2013-10-05 02:07:00,
2013-10-04 21:12:00,57.4,56.3,29.74,East,101,9.0,16.0,96,0.01,,---,0.02,0.00,VWS V14.01,2013-10-05 02:12:00,
2013-10-04 21:17:00,57.4,56.3,29.74,East,81,6.0,16.0,96,0.01,,---,0.02,0.00,VWS V14.01,2013-10-05 02:17:00,
2013-10-04 21:22:00,57.4,56.3,29.74,ENE,75,14.0,14.0,96,0.01,,---,0.02,0.00,VWS V14.01,2013-10-05 02:22:00,
2013-10-04 21:27:00,57.5,56.4,29.74,East,92,10.0,15.0,96,0.02,,---,0.03,0.00,VWS V14.01,2013-10-05 02:27:00,
2013-10-04 21:32:00,57.5,56.4,29.73,East,81,12.0,18.0,96,0.02,,---,0.03,0.00,VWS V14.01,2013-10-05 02:32:00,
2013-10-04 21:37:00,57.5,56.4,29.72,East,90,15.0,16.0,96,0.02,,---,0.03,0.00,VWS V14.01,2013-10-05 02:37:00,
2013-10-04 21:42:00,57.5,56.4,29.71,ENE,66,11.0,16.0,96,0.03,,---,0.04,0.00,VWS V14.01,2013-10-05 02:42:00,
2013-10-04 21:47:00,57.5,56.4,29.72,East,92,6.0,16.0,96,0.03,,---,0.04,0.00,VWS V14.01,2013-10-05 02:47:00,
2013-10-04 21:52:00,57.5,56.4,29.73,NE,56,7.0,18.0,96,0.03,,---,0.04,0.00,VWS V14.01,2013-10-05 02:52:00,
2013-10-04 21:57:00,57.6,56.5,29.72,ENE,74,12.0,18.0,96,0.04,,---,0.05,0.00,VWS V14.01,2013-10-05 02:57:00,
2013-10-04 22:02:00,57.6,56.5,29.73,ENE,67,9.0,18.0,96,0.04,,---,0.05,0.00,VWS V14.01,2013-10-05 03:02:00,
2013-10-04 22:07:00,57.6,56.5,29.74,ENE,58,4.0,12.0,96,0.04,,---,0.05,0.00,VWS V14.01,2013-10-05 03:07:00,
2013-10-04 22:12:00,57.6,56.5,29.77,ESE,102,5.0,14.0,96,0.04,,---,0.05,0.00,VWS V14.01,2013-10-05 03:12:00,
2013-10-04 22:17:00,57.7,56.6,29.77,East,80,10.0,14.0,96,0.05,,---,0.06,0.00,VWS V14.01,2013-10-05 03:17:00,
2013-10-04 22:22:00,57.8,56.7,29.77,East,89,9.0,12.0,96,0.05,,---,0.07,0.00,VWS V14.01,2013-10-05 03:22:00,
2013-10-04 22:27:00,57.8,56.7,29.76,ENE,66,10.0,13.0,96,0.05,,---,0.07,0.00,VWS V14.01,2013-10-05 03:27:00,
2013-10-04 22:32:00,57.9,56.8,29.77,ENE,59,6.0,15.0,96,0.06,,---,0.08,0.00,VWS V14.01,2013-10-05 03:32:00,
2013-10-04 22:37:00,58.0,56.9,29.76,ENE,68,8.0,14.0,96,0.05,,---,0.08,0.00,VWS V14.01,2013-10-05 03:37:00,
2013-10-04 22:42:00,58.0,56.9,29.76,ENE,57,7.0,14.0,96,0.05,,---,0.08,0.00,VWS V14.01,2013-10-05 03:42:00,
2013-10-04 22:47:00,57.9,56.8,29.76,ENE,71,5.0,14.0,96,0.05,,---,0.08,0.00,VWS V14.01,2013-10-05 03:47:00,
2013-10-04 22:52:00,57.9,56.8,29.76,ENE,69,5.0,9.0,96,0.04,,---,0.08,0.00,VWS V14.01,2013-10-05 03:52:00,
2013-10-04 22:57:00,57.9,56.8,29.75,NE,56,5.0,10.0,96,0.04,,---,0.08,0.00,VWS V14.01,2013-10-05 03:57:00,
2013-10-04 23:01:00,57.8,56.7,29.75,ENE,65,5.0,10.0,96,0.04,,---,0.08,0.00,VWS V14.01,2013-10-05 04:01:00,
2013-10-04 23:06:00,57.8,56.7,29.74,ENE,64,4.0,10.0,96,0.03,,---,0.08,0.00,VWS V14.01,2013-10-05 04:06:00,
2013-10-04 23:11:00,58.0,56.9,29.73,NE,41,10.0,11.0,96,0.03,,---,0.08,0.00,VWS V14.01,2013-10-05 04:11:00,
2013-10-04 23:16:00,58.1,57.0,29.74,ENE,74,4.0,11.0,96,0.03,,---,0.08,0.00,VWS V14.01,2013-10-05 04:16:00,
2013-10-04 23:21:00,58.2,57.1,29.73,ENE,60,4.0,11.0,96,0.01,,---,0.08,0.00,VWS V14.01,2013-10-05 04:21:00,
2013-10-04 23:26:00,58.3,57.2,29.73,NE,53,7.0,15.0,96,0.01,,---,0.08,0.00,VWS V14.01,2013-10-05 04:26:00,
2013-10-04 23:31:00,58.3,57.2,29.73,NE,53,10.0,15.0,96,0.01,,---,0.08,0.00,VWS V14.01,2013-10-05 04:31:00,
2013-10-04 23:36:00,58.4,57.3,29.73,NE,55,7.0,10.0,96,0.00,,---,0.08,0.00,VWS V14.01,2013-10-05 04:36:00,
2013-10-04 23:41:00,58.4,57.3,29.73,ENE,57,3.0,11.0,96,0.00,,---,0.08,0.00,VWS V14.01,2013-10-05 04:41:00,
2013-10-04 23:46:00,58.5,57.4,29.73,ENE,61,9.0,12.0,96,0.00,,---,0.08,0.00,VWS V14.01,2013-10-05 04:46:00,
2013-10-04 23:51:00,58.5,57.4,29.72,NE,55,8.0,15.0,96,0.00,,---,0.08,0.00,VWS V14.01,2013-10-05 04:51:00,
2013-10-04 23:56:00,58.5,57.4,29.72,ENE,59,7.0,16.0,96,0.00,,---,0.08,0.00,VWS V14.01,2013-10-05 04:56:00,